BCS167 EDDP-EDDK

Flight info

Callsign BCS167
Flight time 0h 48m
Altitude 28000
Route ORTAG5N ORTAG Q230 KUMER DCT TOLTA DCT PODER Z189 RUNER T858 KOPAG KOPAG1D
Aircraft B738/M-SDGIJ1LRWY/SB1

Departure

Time 2026-04-24 15:24
Airport Leipzig/Halle Airport (EDDP)

Arrival

Time 2026-04-24 16:12
Airport Cologne Bonn Airport (EDDK)
Time Latitude Longitude Altitude Speed Heading
2026-04-24 14:16 51.40801 12.23562 479 ft 0 kts 266°
2026-04-24 15:10 51.40801 12.23570 478 ft 2 kts 266°
2026-04-24 15:10 51.40802 12.23592 478 ft 2 kts 265°
2026-04-24 15:11 51.40803 12.23615 478 ft 2 kts 270°
2026-04-24 15:11 51.40800 12.23641 478 ft 2 kts 295°
2026-04-24 15:11 51.40791 12.23663 478 ft 2 kts 315°
2026-04-24 15:11 51.40778 12.23678 478 ft 2 kts 335°
2026-04-24 15:12 51.40764 12.23685 478 ft 0 kts 353°
2026-04-24 15:12 51.40757 12.23686 478 ft 0 kts 356°
2026-04-24 15:14 51.40797 12.23681 478 ft 9 kts 355°
2026-04-24 15:14 51.40860 12.23672 478 ft 9 kts 354°
2026-04-24 15:15 51.40937 12.23663 478 ft 11 kts 355°
2026-04-24 15:15 51.41012 12.23656 478 ft 10 kts
2026-04-24 15:15 51.41053 12.23728 478 ft 9 kts 81°
2026-04-24 15:15 51.41060 12.23864 478 ft 17 kts 85°
2026-04-24 15:16 51.41071 12.24102 478 ft 25 kts 85°
2026-04-24 15:16 51.41085 12.24398 478 ft 24 kts 85°
2026-04-24 15:16 51.41106 12.24560 478 ft 8 kts 18°
2026-04-24 15:16 51.41169 12.24589 478 ft 14 kts 14°
2026-04-24 15:17 51.41326 12.24646 478 ft 30 kts 13°
2026-04-24 15:17 51.41555 12.24735 478 ft 34 kts 13°
2026-04-24 15:17 51.41783 12.24826 487 ft 35 kts 14°
2026-04-24 15:17 51.42044 12.24923 504 ft 38 kts 15°
2026-04-24 15:18 51.42278 12.25019 500 ft 34 kts 10°
2026-04-24 15:18 51.42513 12.25106 494 ft 35 kts 12°
2026-04-24 15:18 51.42755 12.25198 487 ft 29 kts 14°
2026-04-24 15:18 51.42933 12.25263 478 ft 13 kts 13°
2026-04-24 15:19 51.42991 12.25362 478 ft 12 kts 85°
2026-04-24 15:19 51.42997 12.25500 478 ft 13 kts 85°
2026-04-24 15:19 51.43005 12.25667 478 ft 16 kts 85°
2026-04-24 15:19 51.43052 12.25806 478 ft 15 kts 13°
2026-04-24 15:20 51.43113 12.25930 478 ft 17 kts 88°
2026-04-24 15:20 51.43121 12.26135 478 ft 19 kts 86°
2026-04-24 15:20 51.43133 12.26371 478 ft 22 kts 85°
2026-04-24 15:20 51.43146 12.26642 478 ft 25 kts 85°
2026-04-24 15:21 51.43154 12.26834 478 ft 9 kts 84°
2026-04-24 15:21 51.43198 12.26915 478 ft 9 kts 10°
2026-04-24 15:21 51.43215 12.26909 478 ft 0 kts 342°
2026-04-24 15:21 51.43215 12.26908 478 ft 0 kts 342°
2026-04-24 15:22 51.43236 12.26895 478 ft 8 kts 329°
2026-04-24 15:22 51.43298 12.26785 478 ft 15 kts 311°
2026-04-24 15:22 51.43361 12.26688 478 ft 9 kts 284°
2026-04-24 15:23 51.43362 12.26654 478 ft 0 kts 266°
2026-04-24 15:23 51.43343 12.26227 478 ft 76 kts 264°
2026-04-24 15:23 51.43287 12.25018 478 ft 140 kts 266°
2026-04-24 15:24 51.42890 12.19587 2298 ft 165 kts 261°
2026-04-24 15:25 51.42636 12.15960 3360 ft 171 kts 271°
2026-04-24 15:25 51.42539 12.12056 4475 ft 179 kts 270°
2026-04-24 15:26 51.42268 12.05612 5942 ft 209 kts 269°
2026-04-24 15:27 51.41968 11.98035 7298 ft 249 kts 271°
2026-04-24 15:27 51.41577 11.89186 8938 ft 278 kts 270°
2026-04-24 15:28 51.40927 11.76392 11043 ft 314 kts 270°
2026-04-24 15:29 51.40562 11.69145 11929 ft 338 kts 269°
2026-04-24 15:30 51.40842 11.57906 14033 ft 341 kts 287°
2026-04-24 15:31 51.43356 11.43061 16837 ft 353 kts 287°
2026-04-24 15:32 51.45751 11.27524 19461 ft 365 kts 285°
2026-04-24 15:33 51.48150 11.11568 21925 ft 374 kts 285°
2026-04-24 15:33 51.49785 10.99314 23552 ft 383 kts 282°
2026-04-24 15:34 51.50714 10.90879 24553 ft 389 kts 281°
2026-04-24 15:35 51.52135 10.78013 26051 ft 395 kts 281°
2026-04-24 15:35 51.53105 10.69335 27402 ft 389 kts 281°
2026-04-24 15:35 51.53583 10.65058 27999 ft 387 kts 281°
2026-04-24 15:36 51.54079 10.60773 28089 ft 393 kts 282°
2026-04-24 15:36 51.55836 10.47939 28113 ft 388 kts 283°
2026-04-24 15:37 51.57036 10.39417 28119 ft 389 kts 283°
2026-04-24 15:37 51.58223 10.30816 28122 ft 388 kts 282°
2026-04-24 15:38 51.59365 10.22407 28125 ft 389 kts 282°
2026-04-24 15:38 51.60525 10.13781 28128 ft 388 kts 282°
2026-04-24 15:39 51.61685 10.05101 28131 ft 387 kts 282°
2026-04-24 15:39 51.62852 9.96306 28133 ft 387 kts 282°
2026-04-24 15:40 51.63994 9.87646 28134 ft 387 kts 282°
2026-04-24 15:40 51.65147 9.78841 28137 ft 387 kts 282°
2026-04-24 15:41 51.66288 9.70080 28141 ft 387 kts 282°
2026-04-24 15:41 51.67428 9.61265 28141 ft 387 kts 282°
2026-04-24 15:42 51.68334 9.52458 28142 ft 387 kts 275°
2026-04-24 15:42 51.68139 9.43619 28151 ft 387 kts 264°
2026-04-24 15:43 51.67371 9.34784 28151 ft 388 kts 262°
2026-04-24 15:43 51.66511 9.25741 28150 ft 387 kts 262°
2026-04-24 15:44 51.65673 9.16739 28161 ft 387 kts 262°
2026-04-24 15:44 51.64834 9.07562 28154 ft 386 kts 262°
2026-04-24 15:45 51.64017 8.98628 28163 ft 387 kts 262°
2026-04-24 15:45 51.63188 8.89618 27987 ft 388 kts 262°
2026-04-24 15:46 51.62786 8.85279 27822 ft 386 kts 262°
2026-04-24 15:46 51.62337 8.80753 27654 ft 387 kts 260°
2026-04-24 15:46 51.61641 8.76354 27369 ft 390 kts 252°
2026-04-24 15:46 51.60485 8.72254 26957 ft 393 kts 242°
2026-04-24 15:47 51.58863 8.68600 26552 ft 396 kts 232°
2026-04-24 15:47 51.56831 8.65455 26154 ft 401 kts 222°
2026-04-24 15:47 51.54477 8.62750 25750 ft 406 kts 216°
2026-04-24 15:47 51.51998 8.60321 25344 ft 409 kts 214°
2026-04-24 15:48 51.49540 8.58080 24952 ft 410 kts 213°
2026-04-24 15:48 51.47034 8.55863 24554 ft 408 kts 212°
2026-04-24 15:48 51.44554 8.53692 24162 ft 405 kts 212°
2026-04-24 15:48 51.42086 8.51532 23770 ft 403 kts 212°
2026-04-24 15:49 51.39649 8.49392 23388 ft 402 kts 212°
2026-04-24 15:49 51.37231 8.47262 23087 ft 393 kts 212°
2026-04-24 15:49 51.34866 8.45176 22805 ft 383 kts 212°
2026-04-24 15:49 51.32554 8.43131 22297 ft 380 kts 212°
2026-04-24 15:50 51.30284 8.41023 21792 ft 376 kts 216°
2026-04-24 15:50 51.28220 8.38531 21286 ft 372 kts 225°
2026-04-24 15:50 51.26472 8.35431 20773 ft 366 kts 236°
2026-04-24 15:50 51.25059 8.32046 20265 ft 362 kts 240°
2026-04-24 15:51 51.23751 8.28515 19748 ft 359 kts 242°
2026-04-24 15:51 51.22506 8.25010 19235 ft 356 kts 242°
2026-04-24 15:51 51.21286 8.21550 18726 ft 354 kts 242°
2026-04-24 15:51 51.20087 8.18156 18229 ft 351 kts 242°
2026-04-24 15:52 51.18893 8.14809 17739 ft 349 kts 242°
2026-04-24 15:52 51.17704 8.11511 17247 ft 347 kts 242°
2026-04-24 15:52 51.16486 8.08166 16761 ft 345 kts 242°
2026-04-24 15:52 51.15266 8.04829 16274 ft 344 kts 242°
2026-04-24 15:53 51.14066 8.01562 15777 ft 342 kts 242°
2026-04-24 15:53 51.12842 7.98236 15293 ft 340 kts 242°
2026-04-24 15:53 51.11642 7.94980 15158 ft 327 kts 242°
2026-04-24 15:53 51.10473 7.91815 15169 ft 322 kts 242°
2026-04-24 15:54 51.09282 7.88585 15169 ft 326 kts 242°
2026-04-24 15:54 51.08114 7.85417 15079 ft 327 kts 242°
2026-04-24 15:54 51.07034 7.82208 14580 ft 329 kts 246°
2026-04-24 15:54 51.06181 7.78749 14065 ft 327 kts 254°
2026-04-24 15:55 51.05575 7.75242 13566 ft 326 kts 258°
2026-04-24 15:55 51.05083 7.71729 13077 ft 325 kts 260°
2026-04-24 15:55 51.04622 7.68178 12585 ft 325 kts 261°
2026-04-24 15:55 51.04136 7.64463 12061 ft 324 kts 260°
2026-04-24 15:56 51.03643 7.60819 11542 ft 324 kts 260°
2026-04-24 15:56 51.03159 7.57326 11057 ft 324 kts 260°
2026-04-24 15:56 51.02649 7.53709 10533 ft 324 kts 260°
2026-04-24 15:56 51.02132 7.50069 10015 ft 323 kts 260°
2026-04-24 15:57 51.01623 7.46507 9505 ft 323 kts 260°
2026-04-24 15:57 51.01119 7.42978 9006 ft 323 kts 260°
2026-04-24 15:57 51.00565 7.39457 8458 ft 320 kts 255°
2026-04-24 15:57 50.99623 7.36238 7952 ft 315 kts 237°
2026-04-24 15:58 50.98203 7.33530 7450 ft 307 kts 228°
2026-04-24 15:58 50.96549 7.31199 6919 ft 301 kts 212°
2026-04-24 15:58 50.94548 7.29980 6568 ft 292 kts 189°
2026-04-24 15:58 50.92443 7.29792 6331 ft 291 kts 173°
2026-04-24 15:59 50.90500 7.30753 6026 ft 274 kts 143°
2026-04-24 15:59 50.89007 7.32757 5816 ft 258 kts 132°
2026-04-24 15:59 50.87636 7.34863 5533 ft 255 kts 133°
2026-04-24 15:59 50.86267 7.36877 5319 ft 249 kts 134°
2026-04-24 16:00 50.84892 7.38851 5187 ft 247 kts 134°
2026-04-24 16:00 50.83485 7.40865 5053 ft 248 kts 134°
2026-04-24 16:00 50.82082 7.42875 4963 ft 246 kts 134°
2026-04-24 16:00 50.80688 7.44875 4965 ft 248 kts 134°
2026-04-24 16:01 50.79306 7.46859 4960 ft 248 kts 134°
2026-04-24 16:01 50.77916 7.48852 4955 ft 247 kts 134°
2026-04-24 16:01 50.76518 7.50853 4787 ft 244 kts 134°
2026-04-24 16:01 50.75182 7.52762 4612 ft 237 kts 134°
2026-04-24 16:02 50.73882 7.54618 4472 ft 235 kts 134°
2026-04-24 16:02 50.72607 7.56443 4269 ft 235 kts 134°
2026-04-24 16:02 50.71330 7.58268 4071 ft 234 kts 135°
2026-04-24 16:02 50.70026 7.60127 3854 ft 233 kts 134°
2026-04-24 16:03 50.68733 7.61970 3639 ft 232 kts 135°
2026-04-24 16:03 50.67461 7.63773 3428 ft 232 kts 135°
2026-04-24 16:03 50.66144 7.65577 3207 ft 232 kts 143°
2026-04-24 16:03 50.64524 7.66542 2991 ft 228 kts 178°
2026-04-24 16:04 50.62929 7.65907 2946 ft 211 kts 218°
2026-04-24 16:04 50.61834 7.64304 2956 ft 208 kts 231°
2026-04-24 16:04 50.60947 7.62325 2947 ft 203 kts 255°
2026-04-24 16:04 50.60900 7.59965 2956 ft 195 kts 291°
2026-04-24 16:05 50.62028 7.55676 2949 ft 192 kts 298°
2026-04-24 16:05 50.62668 7.53620 2950 ft 191 kts 302°
2026-04-24 16:06 50.64150 7.49690 2953 ft 191 kts 308°
2026-04-24 16:06 50.64975 7.47817 2954 ft 190 kts 310°
2026-04-24 16:06 50.66734 7.44290 2956 ft 189 kts 314°
2026-04-24 16:07 50.67679 7.42585 2955 ft 190 kts 316°
2026-04-24 16:07 50.68615 7.41014 2969 ft 179 kts 318°
2026-04-24 16:07 50.70546 7.38163 2957 ft 168 kts 323°
2026-04-24 16:08 50.71542 7.36900 2959 ft 168 kts 326°
2026-04-24 16:08 50.73667 7.34668 2959 ft 168 kts 332°
2026-04-24 16:09 50.75504 7.32077 2759 ft 174 kts 304°
2026-04-24 16:09 50.76090 7.30379 2750 ft 163 kts 303°
2026-04-24 16:09 50.76749 7.28890 2688 ft 158 kts 315°
2026-04-24 16:09 50.77603 7.27619 2352 ft 160 kts 323°
2026-04-24 16:10 50.80125 7.24179 1845 ft 148 kts 319°
2026-04-24 16:11 50.81777 7.21922 1347 ft 148 kts 319°
2026-04-24 16:11 50.82597 7.20716 1077 ft 151 kts 318°
2026-04-24 16:11 50.83413 7.19570 920 ft 146 kts 318°
2026-04-24 16:12 50.85057 7.17223 482 ft 148 kts 317°
2026-04-24 16:12 50.85838 7.16100 304 ft 145 kts 319°
2026-04-24 16:12 50.86839 7.14636 265 ft 35 kts 295°
2026-04-24 16:13 50.86878 7.14413 260 ft 20 kts 279°
2026-04-24 16:13 50.86898 7.14219 257 ft 0 kts 279°
2026-04-24 16:14 50.86903 7.14180 257 ft 0 kts 279°
2026-04-24 16:14 50.86923 7.13995 254 ft 21 kts 279°
2026-04-24 16:15 50.86957 7.13875 253 ft 19 kts 315°
2026-04-24 16:15 50.87174 7.13564 247 ft 11 kts 317°
2026-04-24 16:16 50.87209 7.13479 246 ft 2 kts 252°
2026-04-24 16:16 50.87198 7.13451 246 ft 4 kts 230°
2026-04-24 16:17 50.87164 7.13390 246 ft 0 kts 228°
2026-04-24 16:17 50.87163 7.13389 246 ft 0 kts 228°